Location: Ergnies
(50.0854°N, 2.0375°E)
Time: 16:00:41
(UTC+00:00)

Cosmos 2074 Rocket - Pass Details

Date: 14 January 2026
Orbit: 965 x 986 km, 82.9° (Epoch: 18 February)

Event Time Altitude Azimuth Distance (km) Brightness Sun altitude
Rises 05:17:34 0° 178° (S) 3,682 7.1 -23.0°
Reaches altitude 10° 05:20:05 10° 176° (S) 2,738 6.5 -22.6°
Maximum altitude 05:26:18 68° 95° (E) 1,059 4.3 -21.6°
Drops below altitude 10° 05:32:34 10° 14° (NNE) 2,753 6.4 -20.6°
Sets 05:35:06 0° 12° (NNE) 3,703 7.1 -20.2°
